METEOSAT 7
1 24932U 97049B   03111.03143520 -.00000019  00000-0  00000+0 0  2750
2 24932   0.3560  78.0836 0000616 272.7334 228.6957  1.00270453 20631
ASTRA 1G
1 25071U 97076A   03108.00000000  .00000114  00000-0  10000-3 0  3990
2 25071   0.0122 319.8851 0002995  65.1991 199.8263  1.00273184 19726
INMARSAT 3-F5
1 25153U 98006B   03110.91555725  .00000129  00000-0  10000-3 0  8730
2 25153   0.4553   4.5850 0003128  21.8101 176.7363  1.00271748 19119
HOT BIRD 4
1 25237U 98013A   03099.84635997  .00000087  00000-0  10000-3 0  3344
2 25237   0.0316 347.7932 0006645  69.4486  98.0254  1.00270260 19044
NOAA 15
1 25338U 98030A   03113.45719775  .00000143  00000-0  80268-4 0   890
2 25338  98.5472 133.8700 0011283 127.4235 232.7973 14.24274614256897
RESURS O1-N4
1 25394U 98043A   03113.23023967  .00000108  00000-0  65826-4 0  5016
2 25394  98.6196 189.9483 0000478 304.9244  55.1890 14.23901384248592
TMSAT
1 25396U 98043C   03111.95162561 -.00000043 +00000-0 +00000-0 0 08829
2 25396 098.6171 187.8024 0001568 334.8262 025.2841 14.23530351248404
TECHSAT 1B
1 25397U 98043D   03111.92748735 +.00000009 +00000-0 +23165-4 0 01713
2 25397 098.6112 186.5779 0001107 008.9866 351.1329 14.22973730248369
ASTRA 2A
1 25462U 98050A   03108.00000000  .00000144  00000-0  00000+0 0  5414
2 25462   0.0385 308.7109 0004824 280.8620   4.3097  1.00272094 17027
EUTELSAT W2
1 25491U 98056A   03105.84269355  .00000000  00000-0  10000-3 0  5989
2 25491   0.0466 135.2279 0068238 294.0685  93.0438  1.00275633 16617
HOT BIRD 5
1 25495U 98057A   03099.85365163  .00000146  00000-0  00000+0 0  5088
2 25495   0.0280  82.8420 0010247 215.0657 232.9622  1.00274308 16526
SEDSAT 1
1 25509U 98061B   03112.45427088  .00000280  00000-0  44394-4 0  8290
2 25509  31.4266 158.0244 0357260 132.0521 231.1081 14.27486395234303
PAN SAT
1 25520U 98064B   03112.50986321  .00001993  00000-0  96118-4 0  6620
2 25520  28.4622 164.5217 0005782 314.2214  45.7908 15.14203281247132
ISS (ZARYA)
1 25544U 98067A   03113.49001133  .00024211  00000-0  31705-3 0  9190
2 25544  51.6324 295.0207 0006641  51.1059 346.5507 15.58434644252470
ORSTED
1 25635U 99008B   03112.89373387  .00000404  00000-0  10923-3 0  8863
2 25635  96.4613  84.0229 0145686 127.5464 233.9080 14.44930874219085
SUNSAT
1 25636U 99008C   03113.51328246  .00000172  00000-0  52369-4 0  6803
2 25636  96.4639  83.0216 0149827 132.7194 228.6728 14.43001026219030
UOSAT 12
1 25693U 99021A   03113.49174847  .00000310  00000-0  64090-4 0  9041
2 25693  64.5590 175.1242 0026213 312.6030  47.2863 14.76456768215694
FENGYUN 1C
1 25730U 99025A   03113.22744278  .00000025  00000-0  36885-4 0  8187
2 25730  98.6286 135.2267 0014229 177.6184 182.5057 14.11741269203612
ASTRA 1H
1 25785U 99033A   03108.00000000  .00000114  00000-0  10000-3 0  3795
2 25785   0.0122 319.8851 0002995  65.1991 199.8210  1.00273184 14084
TERRA
1 25994U 99068A   03113.24365205  .00000570  00000-0  13647-3 0  9060
2 25994  98.1867 188.4400 0000917  88.4366 271.6938 14.57141165177946
JAWSAT
1 26061U 00004A   03112.55415585  .00000345  00000-0  13279-3 0  8181
2 26061 100.1945 181.2756 0035831 101.8129 258.7074 14.37901937169585
OPAL
1 26063U 00004C   03112.70388534  .00000090  00000-0  51401-4 0  7684
2 26063 100.2009 178.6968 0037395 108.7190 251.8048 14.35508748169446
ASUSAT
1 26065U 00004E   03113.56556291  .00000107  00000-0  57065-4 0  7870
2 26065 100.1985 179.8789 0037954 107.7920 252.7408 14.35539135169562
GOES 11
1 26352U 00022A   03113.45044969 -.00000047  00000-0  10000-3 0  1247
2 26352   0.2995  98.5479 0002215 257.5804 263.0717  1.00272996 10876
EUTELSAT W4
1 26369U 00028A   03105.78126854  .00000150  00000-0  00000+0 0  3759
2 26369   0.0567  31.2297 0002759 330.6543 158.9819  1.00272063 10617
FENGYUN 2B
1 26382U 00032A   03111.66420560 -.00000344  00000-0  00000+0 0  8362
2 26382   0.4179 292.4241 0001001 267.9937 352.4708  1.00283217 10333
EUTELSAT W1
1 26487U 00052A   03112.86256008  .00000053  00000-0  10000-3 0  3880
2 26487   0.0377 126.3449 0006895 227.0163 177.6071  1.00271541  9654
ASTRA 2B
1 26494U 00054A   03108.00000000  .00000144  00000-0  00000+0 0  2627
2 26494   0.0178 354.5658 0005000 302.8402 296.4717  1.00276704  9500
NOAA 16
1 26536U 00055A   03113.21846878  .00000084  00000-0  70192-4 0  3005
2 26536  98.9120  61.0683 0011416 123.6443 236.5828 14.11940054133137
SAUDISAT 1A
1 26545U 00057A   03112.35913447  .00000728  00000-0  11557-3 0  4418
2 26545  64.5597 198.9137 0047353 228.6499 131.0513 14.79143115138507
UNISAT
1 26547U 00057C   03111.63514128  .00001440  00000-0  20423-3 0  4619
2 26547  64.5579 203.1142 0054629 230.1487 129.4795 14.80007844138371
TIUNGSAT 1
1 26548U 00057D   03111.60855297  .00000966  00000-0  13989-3 0  4444
2 26548  64.5574 193.4128 0040609 229.2267 130.5269 14.81477610138552
SAUDISAT 1B
1 26549U 00057E   03111.76391323 +.00000653 +00000-0 +10798-3 0 07437
2 26549 064.5522 205.1754 0051892 228.2389 131.4270 14.78071077138333
AMSAT OSCAR 40
1 26609U 00072B   03109.00807478 -.00000346  00000-0  10000-3 0  3250
2 26609   8.5228  53.4139 7957312 165.7240 252.3808  1.25596241 11335
GOES 12
1 26871U 01031A   03113.35625340 -.00000270  00000-0  10000-3 0  9315
2 26871   0.1695 274.4035 0000925  90.6251 258.8490  1.00346196  6474
PCSAT
1 26931U 01043C   03113.21000232  .00000094  00000-0  69359-4 0  4564
2 26931  67.0466  91.7701 0005949 274.1964  85.8456 14.29149827 81447
SAPPHIRE
1 26932U 01043D   03112.90043944  .00000004  00000-0  34000-4 0  4507
2 26932  67.0535  92.2584 0003994 265.7149  94.3500 14.29318512 81421
ENVISAT
1 27386U 02009A   03112.55910570  .00000135  00000-0  66108-4 0    70
2 27386  98.5447 180.2130 0000930  88.9762 271.1529 14.32248008 59768
IDEFIX/ARIANE 42P
1 27422U 02021B   03113.22449856  .00000151  00000-0  78694-4 0  2864
2 27422  98.6866 192.1005 0012052 328.1665  31.8790 14.28004495 50540
FENGYUN 1D
1 27431U 02024B   03112.21898461 -.00000268  00000-0 -12923-3 0  2666
2 27431  98.7539 159.4863 0014412 309.7223  50.2534 14.09182426 48192
NOAA 17
1 27453U 02032A   03113.39644363  .00000210  00000-0  11230-3 0  3856
2 27453  98.7441 184.2346 0012168 167.5913 192.5568 14.23333106 43047
HOT BIRD 6
1 27499U 02038A   03104.14052927  .00000000  00000-0  10000-3 0   739
2 27499   0.0313 303.0505 0012771 138.1476 184.1937  1.00273600  2378
RUBIN 2
1 27605U 02058A   03112.78754898  .00000402  00000-0  85724-4 0  1143
2 27605  64.5585   5.2583 0034970  84.0342 276.4739 14.71468413 18110
